Location: Newark
(52.2090°N, 4.1550°W)
Time: 09:55:35
(UTC+00:00)

Tiros 1 despin weight - Visible Passes

Search period start: 15 September 2019 00:00
Search period end: 25 September 2019 00:00
Orbit: 595 x 642 km, 48.2° (Epoch: 14 September)

Date Brightness Start Highest point End Pass type
(mag) Time Alt. Az. Time Alt. Az. Time Alt. Az.
15 Sep ? 19:22:53 10° W 19:26:42 29° SSW 19:30:30 10° SE visible
16 Sep ? 19:39:46 10° W 19:43:00 20° SSW 19:46:13 10° SSE visible
17 Sep ? 19:57:14 10° WSW 19:59:11 13° SW 20:01:07 10° SSW visible
